Rbgn^[z[y[W
メイン
   新天体発見情報
     Comet P/2024 F1 (PANSTARRS)
投稿するにはまず登録を

スレッド表示 | 新しいものから 前のトピック | 次のトピック | 下へ
投稿者 スレッド
佐藤裕久
投稿日時: 2024-4-28 20:53
モデレータ
登録日: 2005-6-12
居住地: 日本
投稿: 2585
オンライン
Comet P/2024 F1 (PANSTARRS)

R. Weryk (西オンタリオ大学,物理および天文学科)の通報によると、3月18日UT、Haleakalaにある
Pan-STARRS1 1.8-m Ritchey-Chretien反射望遠鏡で得た画像から彗星を発見した。
4枚の45-秒のw-バンドサーベイ画像では、1".2-1".4のシーイングで、1".8 (半値全幅:FWHM)の非常
に集光したコマが見え、p.a. 305°に8"のハッキリした尾がある。
Werykは、さらに4枚の45-秒のPan-STARRS1 w-バンドサーベイ画像 wバンドサーベイ画像では、3月
30.33-30.37日UTに、1".3-1".4のシーイングで、1".8 (FWHM)の集光したコマが見え、p.a. 305°に
6"のまっすぐな尾があると付け加えた。彼はさらに、2月15日の画像はp.a. 300°に8"のハッキリし
た尾があるが、彗星の頭部がカメラの"セルの隙間"に隠れてしまい、天体測定をすることができなか
ったと述べた。さらに、4月5.47日、R. Wainscoatが、Maunakeaにある3.6-m Canada-France-Hawaii
望遠鏡で得た、3枚の60-秒のgri-バンドフォローアップ画像が最良の画像で、これは明らかに彗星で、
1".0のシーイングで、1".4(FWHM)の集光したコマが見え、p.a. 305°に9"の尾がある。
小惑星センターのPCCP webpageに公表後、佐藤英貴氏(東京都文京区, 3月18.56-18.57日UT、120-秒
CCD露出10枚のスタック, 0.51-m f/6.8 アストログラフ, Siding Spring, NSW, オーストラリア, 
遠隔操作:強く集光した6" のコマが見えるが尾はなかった。3".2の円形範囲で測定した光度は20.6等
であった)らCCD位置観測者によって彗星状と観測された。

彗星機能の報告は次のとおり、

OC   Date        Reporter           Coma    Tail    PA          Exposures
Q62  2024-03-18  H. Sato            6"                           10x120s
F51  2024-03-30  R. Weryk           0".5    6"     305            4x45s
V37  2024-04-02  P. Breitenstein    4"     18"     300-315        9x120s
T14  2024-04-05  R. Weryk           0".4    9"     305            3x60s

発見位置は次のとおり、

     2024 UT             R.A. (2000) Decl.       Mag.
     Mar. 18.41096   11 56 42.07   -12 37 58.8   20.7
          18.42262   11 56 41.51   -12 37 54.3   20.9
          18.43427   11 56 40.95   -12 37 49.7   20.6
          18.44593   11 56 40.41   -12 37 45.2   21.3
          18.52141   11 56 36.81   -12 37 14.5   21.0
          18.52222   11 56 36.78   -12 37 14.2   21.1

MPCの楕円軌道要素、位置推算表は次のとおり、

Orbital elements:
    P/2024 F1 (PANSTARRS)                                                       
Epoch 2024 Mar. 31.0 TT = JDT 2460400.5                                         
T 2023 Oct. 25.31816 TT                                 Rudenko                 
q   1.8614146            (2000.0)            P               Q                  
n   0.15416089     Peri.  229.59559     -0.51037563     -0.85211935             
a   3.4447146      Node   251.45408     +0.82135884     -0.44314426             
e   0.4596317      Incl.    7.01571     +0.25472803     -0.27841655             
P   6.39                                                                        
From 43 observations 2024 Mar. 18-Apr. 6, mean residual 0".7.                   
                                                                                
Ephemeris:
Date    TT    R. A. (2000) Decl.     Delta      r    Elong.  Phase   m1
2024 03 10    12 02 58.5 -13 27 50   1.2194  2.1781   159.6     9.1  19.8
...
2024 03 25    11 51 53.6 -11 50 57   1.2549  2.2404   168.2     5.2  20.0
...
2024 04 02    11 46 42.4 -10 49 17   1.2965  2.2748   164.3     6.8  20.1
...
2024 04 08    11 43 33.1 -10 02 41   1.3380  2.3010   159.0     9.0  20.3
2024 04 09    11 43 06.0 -09 55 03   1.3457  2.3055   158.1     9.3  20.3
2024 04 10    11 42 40.4 -09 47 30   1.3537  2.3099   157.1     9.7  20.3
...
2024 04 16    11 40 36.7 -09 04 01   1.4062  2.3366   151.3    11.9  20.4
...
2024 04 24    11 39 16.8 -08 12 49   1.4880  2.3728   143.5    14.6  20.6
...
2024 05 09    11 41 06.3 -07 03 57   1.6726  2.4418   129.4    18.6  21.0

(MPEC 2024-G102、CBET 5379)
スレッド表示 | 新しいものから 前のトピック | 次のトピック | トップ

投稿するにはまず登録を
 
© 1999 Tsutomu Seki.